Weather History for South Haven, MI

Change the Weather History Date:

Wednesday, December 25, 2013

  Actual Average (KBIV) Record (KBIV)
Temperature  
Mean Temperature 23 °F 29 °F  
Max Temperature 28 °F 34 °F 63 °F (1982)
Min Temperature 19 °F 24 °F 0 °F (1983)
Degree Days  
Heating Degree Days 42 36  
Month to date heating degree days 824  
Since 1 July heating degree days 2047  
Cooling Degree Days 0 0  
Month to date cooling degree days 0  
Year to date cooling degree days 693  
Moisture  
Dew Point 19 °F    
Average Humidity 85    
Maximum Humidity 94    
Minimum Humidity 72    
Precipitation  
Precipitation 0.00 in 0.06 in 1.52 in (1979)
Month to date precipitation 1.97  
Year to date precipitation 36.13  
Sea Level Pressure  
Sea Level Pressure 30.17 in    
Wind  
Wind Speed 9 mph (SSW)    
Max Wind Speed 13 mph    
Max Gust Speed 18 mph    
Visibility 5 miles    
Events Snow    
T = Trace of Precipitation, MM = Missing Value Source: NWS Daily Summary

Daily Weather History Graph

Daily Weather History Graph

Search for Another Location

Airport:

Trip Planner

Search our weather history database for the weather conditions in past years. The results will help you decide how hot, cold, wet, or windy it might be!

Date:

Astronomy

Dec. 25, 2013 Rise Set
Actual Time 8:12 AM EST 5:17 PM EST
Civil Twilight 7:40 AM EST 5:49 PM EST
Nautical Twilight 7:05 AM EST 6:25 PM EST
Astronomical Twilight 6:31 AM EST 6:59 PM EST
Moon 12:33 AM EST (12/25) 12:27 PM EST (12/25)
Length of Visible Light 10h 09m
Length of Day
9h 05m
Waning Gibbous, 49% of the Moon is Illuminated
Dec 25
Waning Gibbous
Jan 1
New
Jan 7
First Quarter
Jan 15
Full
Jan 24
Last Quarter

Hourly Weather History & Observations

Time (EST) Temp. Windchill Dew Point Humidity Pressure Visibility Wind Dir Wind Speed Gust Speed Precip Events Conditions
5:32 AM 19.8 °F 8.3 °F 12.0 °F 72% 30.28 in 10.0 mi South 10.4 mph 17.3 mph N/A   Overcast
5:35 AM 19.8 °F 7.7 °F 12.0 °F 72% 30.28 in 10.0 mi South 11.5 mph 17.3 mph N/A   Overcast
5:55 AM 19.8 °F 7.7 °F 12.0 °F 72% 30.27 in 10.0 mi South 11.5 mph 18.4 mph N/A   Overcast
6:15 AM 19.9 °F 9.3 °F 12.2 °F 72% 30.27 in 10.0 mi South 9.2 mph - N/A Snow Light Snow
6:35 AM 19.4 °F 9.5 °F 12.2 °F 74% 30.26 in 10.0 mi South 8.1 mph - N/A   Overcast
6:55 AM 20.1 °F 9.5 °F 12.6 °F 73% 30.26 in 10.0 mi South 9.2 mph - N/A Snow Light Snow
7:15 AM 20.3 °F 7.7 °F 12.6 °F 72% 30.26 in 7.0 mi SSW 12.7 mph 18.4 mph N/A Snow Light Snow
7:35 AM 20.1 °F 9.5 °F 14.2 °F 78% 30.26 in 2.5 mi SSW 9.2 mph 16.1 mph N/A Snow Light Snow
7:55 AM 19.9 °F 9.3 °F 15.4 °F 83% 30.26 in 2.0 mi SSW 9.2 mph 16.1 mph N/A Snow Light Snow
8:15 AM 19.8 °F 10.8 °F 16.0 °F 85% 30.26 in 2.5 mi South 6.9 mph - N/A Snow Light Snow
8:35 AM 19.8 °F 9.1 °F 16.5 °F 87% 30.25 in 1.8 mi South 9.2 mph - N/A Snow Light Snow
8:55 AM 19.9 °F 8.6 °F 16.5 °F 87% 30.25 in 3.0 mi South 10.4 mph 17.3 mph N/A Snow Light Snow
9:15 AM 20.1 °F 9.5 °F 16.7 °F 87% 30.25 in 5.0 mi South 9.2 mph - N/A Snow Light Snow
9:35 AM 20.3 °F 8.3 °F 16.5 °F 85% 30.25 in 10.0 mi South 11.5 mph 16.1 mph N/A   Overcast
9:55 AM 20.8 °F 9.0 °F 16.5 °F 83% 30.25 in 10.0 mi SSW 11.5 mph - N/A Snow Light Snow
10:15 AM 21.0 °F 9.9 °F 16.7 °F 83% 30.24 in 4.0 mi South 10.4 mph - N/A Snow Light Snow
10:35 AM 21.2 °F 9.5 °F 16.7 °F 83% 30.24 in 3.0 mi South 11.5 mph - N/A Snow Light Snow
10:55 AM 21.7 °F 10.8 °F 17.2 °F 83% 30.24 in 3.0 mi SSW 10.4 mph - N/A Snow Light Snow
11:15 AM 22.1 °F 12.0 °F 17.4 °F 82% 30.23 in 3.0 mi South 9.2 mph - N/A Snow Light Snow
11:35 AM 22.1 °F 11.3 °F 17.6 °F 83% 30.22 in 4.0 mi SSW 10.4 mph 17.3 mph N/A Snow Light Snow
11:55 AM 22.6 °F 12.6 °F 18.0 °F 82% 30.21 in 5.0 mi SSW 9.2 mph - N/A   Overcast
12:15 PM 22.8 °F 12.9 °F 18.1 °F 82% 30.20 in 5.0 mi SSW 9.2 mph 16.1 mph N/A   Haze
12:35 PM 23.0 °F 13.1 °F 18.3 °F 82% 30.19 in 7.0 mi SSW 9.2 mph 17.3 mph N/A   Overcast
12:55 PM 23.0 °F 12.4 °F 18.5 °F 83% 30.18 in 7.0 mi South 10.4 mph - N/A   Overcast
1:15 PM 23.5 °F 13.0 °F 18.9 °F 82% 30.17 in 5.0 mi SSW 10.4 mph - N/A   Overcast
1:35 PM 23.7 °F 14.7 °F 19.2 °F 83% 30.16 in 7.0 mi SSW 8.1 mph - N/A Snow Light Snow
1:55 PM 23.9 °F 14.2 °F 19.4 °F 83% 30.16 in 5.0 mi SSW 9.2 mph - N/A   Haze
2:15 PM 23.9 °F 15.8 °F 19.8 °F 84% 30.15 in 3.0 mi SSW 6.9 mph - N/A Snow Light Snow
2:35 PM 23.9 °F 14.2 °F 20.5 °F 87% 30.15 in 2.5 mi SSW 9.2 mph - N/A Snow Light Snow
2:55 PM 23.9 °F 15.8 °F 21.0 °F 89% 30.15 in 2.5 mi South 6.9 mph - N/A Snow Light Snow
3:15 PM 24.3 °F 14.6 °F 21.0 °F 87% 30.14 in 4.0 mi South 9.2 mph - N/A   Overcast
3:35 PM 24.3 °F 16.3 °F 20.8 °F 87% 30.14 in 5.0 mi South 6.9 mph - N/A   Overcast
3:55 PM 24.3 °F 15.4 °F 20.8 °F 87% 30.15 in 5.0 mi South 8.1 mph - N/A   Overcast
4:15 PM 24.3 °F 17.3 °F 20.8 °F 87% 30.15 in 5.0 mi South 5.8 mph - N/A   Overcast
4:35 PM 24.4 °F 17.5 °F 20.8 °F 86% 30.14 in 4.0 mi South 5.8 mph - N/A Snow Light Snow
4:55 PM 24.4 °F 16.5 °F 21.0 °F 87% 30.14 in 3.0 mi SSW 6.9 mph - N/A Snow Light Snow
5:15 PM 24.6 °F 17.7 °F 21.2 °F 87% 30.14 in 4.0 mi SSW 5.8 mph - N/A   Overcast
5:35 PM 24.6 °F 16.7 °F 21.2 °F 87% 30.13 in 10.0 mi South 6.9 mph - N/A   Overcast
5:55 PM 24.8 °F 16.1 °F 21.2 °F 86% 30.12 in 10.0 mi South 8.1 mph - N/A   Overcast
6:15 PM 24.8 °F 16.1 °F 21.2 °F 86% 30.12 in 10.0 mi South 8.1 mph - N/A   Overcast
6:35 PM 25.2 °F 17.3 °F 21.6 °F 86% 30.12 in 5.0 mi South 6.9 mph - N/A Snow Light Snow
6:54 PM 25.0 °F 17.1 °F 21.9 °F 88% 30.12 in 3.0 mi South 6.9 mph - N/A Snow Light Snow
7:15 PM 25.2 °F 15.7 °F 22.1 °F 88% 30.12 in 2.5 mi South 9.2 mph - N/A Snow Light Snow
7:35 PM 25.2 °F 15.7 °F 22.6 °F 90% 30.12 in 3.0 mi South 9.2 mph - N/A Snow Light Snow
7:54 PM 25.3 °F 17.6 °F 22.8 °F 90% 30.11 in 2.5 mi SSW 6.9 mph - N/A Snow Light Snow
8:15 PM 25.3 °F 17.6 °F 23.0 °F 91% 30.11 in 3.0 mi South 6.9 mph - N/A Snow Light Snow
8:35 PM 25.5 °F 16.9 °F 23.0 °F 90% 30.10 in 7.0 mi South 8.1 mph - N/A Snow Light Snow
8:54 PM 25.5 °F 16.9 °F 23.0 °F 90% 30.10 in 4.0 mi South 8.1 mph - N/A Snow Light Snow
9:15 PM 25.7 °F 15.1 °F 23.5 °F 92% 30.09 in 2.5 mi South 11.5 mph 16.1 mph N/A Snow Light Snow
9:35 PM 26.1 °F 18.4 °F 23.7 °F 91% 30.08 in 2.5 mi SSW 6.9 mph - N/A Snow Light Snow
9:55 PM 26.2 °F 16.4 °F 23.7 °F 90% 30.08 in 5.0 mi SSW 10.4 mph - N/A Snow Light Snow
10:15 PM 26.2 °F 18.6 °F 23.9 °F 91% 30.07 in 3.0 mi SSW 6.9 mph - N/A Snow Light Snow
10:35 PM 26.4 °F 18.0 °F 24.4 °F 92% 30.07 in 4.0 mi South 8.1 mph - N/A Snow Light Snow
10:55 PM 26.6 °F 21.2 °F 24.6 °F 92% 30.07 in 5.0 mi WSW 4.6 mph - N/A Snow Light Snow
11:15 PM 27.5 °F 16.8 °F 26.1 °F 94% 30.06 in 1.5 mi West 12.7 mph 18.4 mph N/A Snow Light Snow
11:35 PM 27.9 °F 17.3 °F 26.2 °F 94% 30.05 in 1.2 mi West 12.7 mph 18.4 mph N/A Snow Light Snow
11:55 PM 27.5 °F 18.6 °F 25.7 °F 93% 30.05 in 2.0 mi West 9.2 mph - N/A Snow Light Snow